DW6399 Weather Reports


time (UTC)temp
C
wind
direction
speed
KPH
gust
KPH
rain 1hr
cm
rain 24hr
cm
rain mn
cm
humidity
%
barometer
mb
20260905140904 10 326 12.9 24.1 0.00 0.30 0.30 90 994.8
20260905140004 10 331 12.9 29.0 0.00 0.30 0.30 90 994.9
20260905135404 10 332 16.1 29.0 0.00 0.30 0.30 90 994.8
20260905134504 10 329 17.7 29.0 0.00 0.30 0.30 89 994.8
20260905133603 10 330 12.9 27.4 0.00 0.30 0.30 89 994.7
20260905132703 10 328 16.1 25.7 0.00 0.30 0.30 89 994.6
20260905131825 10 327 17.7 27.4 0.00 0.30 0.30 89 994.6
20260905130904 11 326 16.1 24.1 0.00 0.30 0.30 88 994.5
20260905130025 11 330 14.5 29.0 0.00 0.30 0.30 87 994.4
20260905125403 11 322 16.1 25.7 0.00 0.30 0.30 87 994.4
20260905124503 11 319 19.3 30.6 0.00 0.30 0.30 86 994.3
20260905123603 11 316 16.1 29.0 0.00 0.30 0.30 87 994.2
20260905122703 11 324 17.7 29.0 0.00 0.30 0.30 88 994.1
20260905121824 11 322 19.3 32.2 0.00 0.30 0.30 88 994.1
20260905120903 11 320 17.7 32.2 0.00 0.30 0.30 88 993.9
20260905120004 11 320 17.7 32.2 0.00 0.30 0.30 89 993.8
20260905115404 11 322 17.7 35.4 0.00 0.30 0.30 88 993.8
20260905114503 12 318 17.7 29.0 0.00 0.30 0.30 89 993.6
20260905113604 11 329 17.7 29.0 0.00 0.30 0.30 89 993.6
20260905112703 11 328 16.1 24.1 0.00 0.30 0.30 90 993.6
20260905111803 12 333 12.9 24.1 0.00 0.30 0.30 91 993.5
20260905110903 12 338 12.9 24.1 0.00 0.30 0.30 91 993.4
20260905110003 12 340 8.0 20.9 0.00 0.30 0.30 93 993.3
20260905105403 11 335 9.7 20.9 0.00 0.30 0.30 93 993.3
20260905104503 11 332 9.7 20.9 0.03 0.30 0.30 95 993.2
20260905103603 11 329 6.4 17.7 0.05 0.30 0.30 95 993.1
20260905102703 11 331 8.0 14.5 0.05 0.30 0.30 94 993.0
20260905101824 11 336 4.8 12.9 0.05 0.30 0.30 95 993.0
20260905100903 11 338 4.8 12.9 0.05 0.30 0.30 95 992.9
20260905100003 10 335 6.4 16.1 0.05 0.30 0.30 95 992.9
20260905095403 10 332 9.7 19.3 0.05 0.30 0.30 95 992.9
20260905094524 11 328 11.3 20.9 0.03 0.28 0.28 96 992.8
20260905093603 11 325 4.8 8.0 0.00 0.25 0.25 96 992.6
20260905092703 10 345 6.4 16.1 0.00 0.25 0.25 96 992.7
20260905091803 10 330 9.7 16.1 0.00 0.25 0.25 97 992.6
20260905090903 10 343 6.4 14.5 0.00 0.25 0.25 96 992.6
20260905090003 10 335 4.8 14.5 0.00 0.25 0.25 96 992.6
20260905085404 10 333 4.8 8.0 0.00 0.25 0.25 96 992.5
20260905084503 10 353 3.2 9.7 0.00 0.25 0.25 96 992.4
20260905083603 10 337 6.4 17.7 0.00 0.25 0.25 96 992.4
20260905082703 10 338 8.0 17.7 0.00 0.25 0.25 96 992.3
20260905081804 10 331 6.4 11.3 0.00 0.25 0.25 96 992.3
20260905080903 10 328 8.0 14.5 0.03 0.25 0.25 96 992.3
20260905080025 10 317 4.8 8.0 0.05 0.25 0.25 96 992.3
20260905075403 10 322 4.8 8.0 0.05 0.25 0.25 96 992.3
20260905074503 9 327 4.8 8.0 0.08 0.25 0.25 96 992.3
20260905073603 9 328 6.4 9.7 0.08 0.25 0.25 96 992.2
20260905072703 8 332 4.8 8.0 0.10 0.25 0.25 96 992.2
20260905071824 8 353 3.2 6.4 0.15 0.25 0.25 96 992.2
20260905070903 8 344 3.2 6.4 0.18 0.23 0.23 96 992.1
20260905070004 8 331 3.2 6.4 0.18 0.20 0.23 96 992.1
20260905065403 8 330 3.2 6.4 0.18 0.20 0.20 96 992.1
20260905064503 8 330 3.2 8.0 0.15 0.18 0.18 96 992.1
20260905063624 8 340 3.2 6.4 0.15 0.18 0.18 96 992.1
20260905062724 8 340 3.2 8.0 0.13 0.15 0.15 96 992.0
20260905061803 8 334 6.4 9.7 0.10 0.10 0.10 96 991.9
20260905060903 8 325 8.0 12.9 0.05 0.05 0.05 96 991.8
20260905060004 8 329 6.4 9.7 0.03 0.03 0.03 96 991.8
20260905055403 8 332 4.8 9.7 0.03 0.03 0.03 96 991.8
20260905054503 8 338 1.6 6.4 0.03 0.03 0.03 96 991.8
20260905053603 7 321 3.2 6.4 0.03 0.03 0.03 96 991.8
20260905052703 7 321 4.8 8.0 0.03 0.03 0.03 96 991.8
20260905051803 7 321 4.8 8.0 0.00 0.00 0.00 96 991.8
20260905050903 7 321 3.2 6.4 0.00 0.00 0.00 96 991.8
20260905050004 7 321 3.2 6.4 0.00 0.00 0.00 96 991.7
20260905045403 7 321 3.2 4.8 0.00 0.00 0.00 96 991.7
20260905044503 7 321 1.6 4.8 0.00 0.00 0.00 96 991.7
20260905043603 6 321 1.6 4.8 0.00 0.00 0.00 96 991.7
20260905042703 6 321 1.6 3.2 0.00 0.00 0.00 96 991.8
20260905041803 6 0 0.0 0.0 0.00 0.00 0.00 96 991.8
20260905040903 6 0 0.0 0.0 0.00 0.00 0.00 96 991.8
20260905040003 6 321 0.0 1.6 0.00 0.00 0.00 96 991.8
20260905035403 6 321 0.0 1.6 0.00 0.00 0.00 96 991.8
20260905034524 5 0 0.0 0.0 0.00 0.00 0.00 96 991.8
20260905033603 5 321 0.0 3.2 0.00 0.00 0.00 96 991.8
20260905032703 5 321 0.0 1.6 0.00 0.00 0.00 96 991.8
20260905031803 5 321 0.0 1.6 0.00 0.00 0.00 96 991.8
20260905030903 5 0 0.0 0.0 0.00 0.00 0.00 96 991.7
20260905030003 5 321 0.0 1.6 0.00 0.00 0.00 96 991.7
20260905025403 5 321 0.0 1.6 0.00 0.00 0.00 96 991.7
20260905024503 5 321 0.0 1.6 0.00 0.00 0.00 96 991.6
20260905023603 5 321 0.0 3.2 0.00 0.00 0.00 95 991.7
20260905022703 5 321 1.6 4.8 0.00 0.00 0.00 95 991.7
20260905021803 4 321 0.0 3.2 0.00 0.00 0.00 95 991.7
20260905020903 5 0 0.0 0.0 0.00 0.00 0.00 95 991.6
20260905020024 5 0 0.0 0.0 0.00 0.00 0.00 95 991.7
20260905015403 5 0 0.0 0.0 0.00 0.00 0.00 95 991.8
20260905014503 5 0 0.0 0.0 0.00 0.00 0.00 95 991.8
20260905013603 4 0 0.0 0.0 0.00 0.00 0.00 95 991.8
20260905012703 4 0 0.0 0.0 0.00 0.00 0.00 95 991.7
20260905011803 5 0 0.0 0.0 0.00 0.00 0.00 95 991.8
20260905010903 5 0 0.0 0.0 0.00 0.00 0.00 95 991.8
20260905010003 5 321 0.0 1.6 0.00 0.03 0.00 95 991.8
20260905005403 5 321 1.6 4.8 0.00 0.03 0.00 95 991.8
20260905004503 5 321 3.2 6.4 0.00 0.03 0.00 95 991.8
20260905003603 5 321 1.6 4.8 0.00 0.03 0.00 95 991.8
20260905002703 5 321 1.6 4.8 0.00 0.03 0.00 95 991.9
20260905001824 5 321 1.6 4.8 0.00 0.03 0.00 95 992.0
20260905000924 5 321 0.0 3.2 0.00 0.05 0.00 95 992.0
20260905000003 5 0 0.0 0.0 0.00 0.08 0.00 95 992.1
20260904235403 5 321 0.0 1.6 0.00 0.08 0.00 95 992.2
20260904234503 6 0 0.0 0.0 0.00 0.10 0.00 95 992.2
20260904233603 6 321 1.6 4.8 0.00 0.10 0.00 95 992.3
20260904232703 6 321 4.8 6.4 0.00 0.13 0.00 96 992.3
20260904231803 6 321 4.8 6.4 0.00 0.13 0.00 96 992.3
20260904230903 6 321 4.8 6.4 0.00 0.13 0.00 96 992.4
20260904230003 5 321 3.2 6.4 0.00 0.13 0.00 95 992.4
20260904225424 5 321 1.6 4.8 0.00 0.13 0.00 95 992.4
20260904224503 5 321 1.6 3.2 0.00 0.13 0.00 95 992.6
20260904223603 5 321 3.2 4.8 0.00 0.13 0.00 95 992.6
20260904222703 5 321 0.0 4.8 0.00 0.13 0.00 94 992.7
20260904221803 5 0 0.0 0.0 0.00 0.13 0.00 94 992.7
20260904220903 5 0 0.0 0.0 0.00 0.13 0.00 94 992.8
20260904220003 6 0 0.0 0.0 0.00 0.13 0.00 94 992.8
20260904215403 6 0 0.0 0.0 0.00 0.13 0.00 94 992.9
20260904214524 6 0 0.0 0.0 0.00 0.13 0.00 95 992.8
20260904213603 6 0 0.0 0.0 0.00 0.13 0.00 94 992.9
20260904212703 6 321 0.0 3.2 0.00 0.13 0.00 95 992.9
20260904211803 6 321 1.6 3.2 0.00 0.13 0.00 94 993.0
20260904210903 6 0 0.0 0.0 0.00 0.13 0.00 94 993.1
20260904210004 7 321 0.0 1.6 0.00 0.13 0.00 94 993.1
20260904205403 7 321 1.6 3.2 0.00 0.13 0.13 94 993.2
20260904204503 7 321 4.8 6.4 0.00 0.13 0.13 95 993.2
20260904203603 8 321 4.8 6.4 0.00 0.13 0.13 94 993.2
20260904202703 8 321 4.8 8.0 0.00 0.13 0.13 95 993.3
20260904201803 8 321 6.4 8.0 0.00 0.13 0.13 95 993.2
20260904200903 8 321 6.4 8.0 0.00 0.13 0.13 95 993.4
20260904200003 8 316 6.4 8.0 0.00 0.13 0.13 94 993.4
20260904195403 8 315 6.4 8.0 0.00 0.15 0.13 95 993.4
20260904194503 7 316 4.8 8.0 0.00 0.15 0.13 95 993.5
20260904193603 7 311 6.4 8.0 0.00 0.15 0.13 94 993.5
20260904192703 6 302 3.2 6.4 0.00 0.15 0.13 93 993.4
20260904191803 7 297 3.2 6.4 0.00 0.15 0.13 93 993.4
20260904190903 7 221 3.2 6.4 0.00 0.15 0.13 93 993.5
20260904190003 7 218 3.2 4.8 0.00 0.15 0.13 93 993.6
20260904185403 6 218 1.6 4.8 0.00 0.15 0.13 93 993.7
20260904184503 6 217 1.6 3.2 0.00 0.18 0.13 92 993.8
20260904183603 6 217 1.6 3.2 0.00 0.18 0.13 91 993.8
20260904182724 6 217 0.0 3.2 0.00 0.18 0.13 91 993.8
20260904181803 7 217 1.6 3.2 0.00 0.18 0.13 91 993.9
20260904180924 7 218 1.6 3.2 0.00 0.18 0.13 90 993.9
20260904180003 7 217 0.0 1.6 0.00 0.20 0.13 90 993.9
20260904175403 8 217 0.0 1.6 0.00 0.23 0.13 90 993.9
20260904174503 8 217 1.6 1.6 0.00 0.25 0.13 89 993.9
20260904173624 9 217 1.6 3.2 0.00 0.28 0.13 90 993.9
20260904172703 10 217 1.6 3.2 0.00 0.28 0.13 89 994.0
20260904171803 10 218 0.0 3.2 0.00 0.28 0.13 88 994.0
20260904170903 11 217 1.6 3.2 0.00 0.28 0.13 88 994.1
20260904170003 11 217 0.0 3.2 0.00 0.28 0.13 88 994.2
20260904165403 11 0 0.0 0.0 0.00 0.28 0.13 88 994.2
20260904164503 12 0 0.0 0.0 0.00 0.28 0.13 87 994.2
20260904163603 12 0 0.0 0.0 0.00 0.28 0.13 86 994.2
20260904162703 12 0 0.0 0.0 0.00 0.28 0.13 85 994.2
20260904161803 12 0 0.0 0.0 0.00 0.28 0.13 84 994.3
20260904160904 12 218 0.0 3.2 0.00 0.28 0.13 84 994.3
20260904160004 12 217 1.6 3.2 0.00 0.28 0.13 84 994.3
20260904155404 12 218 1.6 1.6 0.00 0.28 0.13 85 994.3
20260904154525 12 217 1.6 4.8 0.00 0.28 0.13 85 994.4
20260904153604 12 217 1.6 3.2 0.00 0.28 0.13 85 994.5
20260904152704 12 217 1.6 4.8 0.00 0.28 0.13 85 994.5
20260904151804 12 222 1.6 8.0 0.00 0.28 0.13 84 994.6
20260904150904 12 228 3.2 8.0 0.00 0.28 0.13 84 994.6
20260904150004 13 229 1.6 4.8 0.00 0.28 0.13 83 994.7
20260904145404 13 202 3.2 8.0 0.00 0.28 0.13 82 994.7
20260904144504 13 240 3.2 12.9 0.00 0.28 0.13 80 994.7
20260904143604 14 165 4.8 11.3 0.00 0.28 0.13 79 994.8
20260904142725 14 172 1.6 8.0 0.00 0.28 0.13 80 994.7
20260904141804 14 172 1.6 6.4 0.00 0.28 0.13 79 994.8